www.pogodaiklimat.ru

Погода и климат >> Архив погоды >> Туркменистан >> Акмолла


ПОГОДА в Акмолле

  • Прогноз погоды в Акмолле
  • Монитор погоды в Акмолле

АРХИВ ПОГОДЫ в Акмолле

Время (UTC), дата Ветер
(напр.,м/с)
 
Видим.   Явления Облачность Т
(С)
Тd
(С)
f
(%)
Тe
(С)
Тes
(С)
Комфортность P
(гПа)
Po
(гПа)
Тmin
(С)
Tmax
(С)
R
(мм)
R24
(мм)
S
(см)
15 18.08 СВ 3 10 км ясно +32.2 +2.9 16 +30 +30 жарко 1012.2 991.1 +34.5
18 18.08 С 2 10 км ясно +26.3 +4.0 24 +25 +25 комфорт 1013.6 992.0 +34.5
21 18.08 СВ 2 10 км ясно +24.0 +4.6 28 +24 +24 комфорт 1014.5 992.5
00 19.08 С 2 10 км ясно +21.0 +5.0 35 +22 +22 комфорт 1014.9 992.8
03 19.08 СВ 2 10 км ясно +23.8 +5.1 30 +24 +26 комфорт 1015.0 993.0 +20.5
09 19.08 СВ 2 10 км ясно +34.1 +2.7 14 +31 +47 жарко 1014.0 992.7
12 19.08 С 2 10 км ясно +34.7 +2.5 13 +32 +37 жарко 1013.3 992.3
15 19.08 СВ 3 10 км ясно +33.7 +2.1 14 +31 +31 жарко 1013.9 992.6 +35.4
18 19.08 С 2 10 км ясно +26.7 +4.6 24 +26 +26 жарко 1014.7 993.0 +35.4
21 19.08 С 1 10 км ясно +24.4 +5.3 29 +24 +24 комфорт 1015.1 993.3
00 20.08 С 1 10 км ясно +21.8 +5.6 35 +22 +22 комфорт 1014.4 992.4
03 20.08 СВ 2 10 км ясно +24.6 +5.6 29 +24 +27 комфорт 1015.3 993.5 +21.4
06 20.08 В 2 10 км ясно +33.0 +4.3 16 +30 +44 жарко 1015.9 994.6 +21.4
09 20.08 С 5 10 км ясно +35.6 +3.6 14 +33 +41 жарко 1015.0 993.9
12 20.08 СВ 4 10 км ясно +35.9 +2.7 13 +33 +37 жарко 1014.0 992.9
15 20.08 С 4 10 км ясно +34.6 +3.8 15 +32 +32 жарко 1013.2 992.2 +36.4
18 20.08 СЗ 2 10 км ясно +28.0 +6.4 25 +27 +27 жарко 1013.5 992.1 +36.4
21 20.08 СЗ 2 10 км ясно +25.7 +5.9 28 +25 +25 комфорт 1013.5 991.8
00 21.08 С 2 10 км ясно +23.1 +6.1 33 +24 +24 комфорт 1013.2 991.3
03 21.08 С 1 10 км ясно +22.4 +7.3 38 +23 +26 комфорт 1013.5 991.8 +22.6
06 21.08 С 2 10 км ясно +35.4 +8.2 19 +34 +47 очень
жарко
1013.2 992.2 +22.6
09 21.08 С 3 10 км ясно +38.0 +5.8 14 +35 +49 очень
жарко
1011.7 991.0
12 21.08 СВ 5 10 км ясно +39.0 +4.8 12 +36 +39 очень
жарко
1009.9 989.2
15 21.08 С 3 10 км ясно +37.4 +5.8 14 +35 +35 очень
жарко
1009.6 988.7 +29.5
18 21.08 С 2 10 км ясно +30.1 +4.6 20 +28 +28 жарко 1010.5 989.2 +39.5
21 21.08 С 2 10 км ясно +27.7 +5.3 24 +27 +27 жарко 1011.1 989.5
00 22.08 С 2 10 км ясно +24.6 +5.9 30 +24 +24 комфорт 1010.6 988.9
03 22.08 СВ 2 10 км ясно +28.2 +6.8 26 +27 +30 жарко 1010.7 989.3 +24.1
06 22.08 С 3 10 км ясно +35.4 +7.3 18 +33 +44 жарко 1010.7 989.7 +24.1
09 22.08 С 5 10 км ясно +38.1 +5.3 13 +35 +44 очень
жарко
1009.6 988.9
12 22.08 С 3 10 км ясно +38.5 +3.2 11 +35 +40 очень
жарко
1008.9 988.2
15 22.08 С 2 10 км ясно +36.1 +4.6 14 +33 +33 жарко 1010.0 989.1 +39.3
18 22.08 С 2 10 км ясно +30.0 +8.5 26 +29 +29 жарко 1010.1 988.8 +39.3
21 22.08 СЗ 2 10 км ясно +27.3 +8.4 30 +27 +27 жарко 1010.0 988.4
00 23.08 С 2 10 км ясно +24.2 +8.2 36 +25 +25 комфорт 1009.7 988.0
03 23.08 С 3 10 км ясно +26.1 +7.3 30 +26 +28 жарко 1011.0 989.4 +23.6
06 23.08 СВ 4 10 км ясно +34.4 +8.1 20 +33 +42 жарко 1012.0 991.0 +23.6
09 23.08 С 6 10 км ясно +37.0 +6.4 15 +34 +41 очень
жарко
1011.3 990.4
12 23.08 С 4 10 км ясно +37.8 +5.0 13 +35 +38 очень
жарко
1010.6 989.7
15 23.08 С 6 10 км ясно +32.9 +4.0 16 +30 +30 жарко 1011.7 990.6 +38.3
18 23.08 С 3 10 км ясно +26.9 +5.5 25 +26 +26 жарко 1013.0 991.4 +38.3
21 23.08 С 2 10 км ясно +24.2 +6.4 32 +24 +24 комфорт 1013.5 991.8
00 24.08 С 2 10 км ясно +20.5 +6.8 41 +22 +22 комфорт 1013.3 991.3
03 24.08 С 2 10 км ясно +20.9 +6.8 40 +23 +25 комфорт 1014.6 992.5 +18.4
06 24.08 С 3 10 км ясно +28.5 +6.1 24 +27 +38 жарко 1015.2 993.7 +18.4
09 24.08 С 3 10 км ясно +32.5 +5.0 18 +30 +43 жарко 1013.2 992.1
12 24.08 С 2 10 км ясно +34.0 +4.0 15 +31 +37 жарко 1011.5 990.4
15 24.08 С 2 10 км ясно +32.7 +4.3 17 +30 +30 жарко 1011.6 990.5 +34.7
18 24.08 С 3 10 км ясно +27.2 +4.6 24 +26 +26 жарко 1012.8 991.2 +34.7
03 25.08 С 3 10 км ясно +19.9 +4.1 35 +21 +22 комфорт 1012.6 990.4 +18.0

 

Местоположение метеостанции Акмолла (Ахалский велаят, Туркменистан): широта 39.58 долгота 59.95 высота над уровнем моря 108 м.

В архиве по умолчанию представлена погода в Акмолле за последнюю неделю. Архивные данные за месяц целиком и за предыдущие месяцы, начиная с января 2011 года, Вы можете получить, выбрав интересующий диапазон дат из раскрывающегося списка и нажав кнопку "Ввод!".


*Определитесь, кто Вы:
робот инопланетянин человек

Внимание! Время в таблицах - всемирное. Для получения местного времени необходимо прибавить поправку, которая равна 5 ч.

Смотрите также архив погоды в соседних городах и на ближайших метеорологических станциях:

Погода в Ербенте (Ахалский велаят, Туркменистан) (119 км)
Погода в Дервезе (Дашогузский велаят, Туркменистан) (142 км)
Погода в Хиве (Хорезмская область, Узбекистан) (206 км)
Погода в Тюя-Муюне (Лебапский велаят, Туркменистан) (220 км)
Погода в Дарганате (Лебапский велаят, Туркменистан) (222 км)
Погода в Ургенче (Хорезмская область, Узбекистан) (227 км)
Погода в Ашхабаде (город Ашхабад, Туркменистан) (232 км)
Погода в Дашогузе (Дашогузский велаят, Туркменистан) (242 км)
Погода в Екеже (Дашогузский велаят, Туркменистан) (245 км)
Погода в Шах-Сенеме (Дашогузский велаят, Туркменистан) (246 км)

Пояснения к столбцам:

Ветер - указаны скорость ветра в м/с - средняя за 10 мин, порывы в срок и между сроками (в фигурных скобках) и направление, откуда дует ветер: С - северный, СВ - северо-восточный, В - восточный, ЮВ - юго-восточный, Ю - южный, ЮЗ - юго-западный, З - западный, СЗ - северо-западный.
Видимость - горизонтальная дальность видимости в метрах или километрах. При видимости от 1 до 10 км при отсутствии осадков обычно наблюдается дымка, при ухудшении видимости до 1 км и менее - туман. В сухую погоду видимость может ухудшаться дымом, пылью или мглою.
Явления - указаны атмосферные явления, наблюдавшиеся в срок или в последний час перед сроком; фигурными скобками обозначены явления, наблюдавшиеся между сроками (за 1-3 часа до срока); квадратными скобками обозначены град или гололедные отложения с указанием их диаметра в мм.
Облачность - указаны через наклонную черту общая и нижняя облачность в баллах и высота нижней границы облаков в метрах; квадратными скобками обозначены формы облаков: Ci - перистые, Cs - перисто-слоистые, Cc - перисто-кучевые, Ac - высококучевые, As - высокослоистые, Sc - слоисто-кучевые, Ns - слоисто-дождевые, Cu - кучевые, Cb - кучево-дождевые. Подробнее классификацию облаков см. в Атласе облаков (PDF).
T - Температура воздуха - температура, измеренная на высоте 2 м над землей.
Td - Температура точки росы - температура, при понижении до которой содержащийся в воздухе водяной пар достигнет насыщения.
f - Относительная влажность воздуха - влажноcть воздуха, измеренная на высоте 2 м над землей.
Te - Эффективная температура - температура, которую ощущает одетый по сезону человек в тени. Характеристика душности погоды. При расчете учитывается влияние влажности воздуха и скорости ветра на теплоощущения человека.
Tes - Эффективная температура на солнце - температура, которую ощущает человек, с поправкой на солнечный нагрев. Характеристика знойности погоды. Зависит от высоты солнца над горизонтом, облачности и скорости ветра. Ночью, в пасмурную погоду, а также при ветре 12 м/с и более поправка равна нулю.
P - Атмосферное давление - приведенное к уровню моря атмосферное давление.
Po - Атмосферное давление - измеренное на уровне метеостанции атмосферное давление.
Tmin - Минимальная температура - минимум температуры воздуха на высоте 2 м над землей.
Tmax - Максимальная температура - максимум температуры воздуха на высоте 2 м над землей.
R - Количество осадков - Количество выпавших осадков за период времени, мм. При наведении курсора мыши на число - период времени, за который выпало указанное количество осадков.
R24 - Количество осадков - Количество выпавших осадков за 24 часа, мм.
S - Снежный покров - Высота снежного покрова, см. При наведении курсора мыши на число - состояние снежного покрова и степень покрытия местности в баллах.